Weather observations for the past three days for
Pratt Municipal
Imperial (Metric)
Date Time (cdt) Wind (mph) Vis. (mi.) Weather Sky Cond. Temperature (ºF) Relative Humidity Wind Chill (°F) Heat Index (°F) Pressure Precipitation (in)
Air Dwpt 6 hour altimeter (in) sea level (mb) 1 hr 3 hr 6 hr
Max. Min.
23 00:35 Calm 10.00 Fair CLR 67.5 66.9 98% 30.09 0.0
23 00:15 Calm 10.00 Fair CLR 68.4 64 86% 30.09 0.0
22 23:55 Calm 10.00 Fair CLR 67.8 66.9 97% 30.07 0.0
22 23:35 Calm 10.00 Fair CLR 67.8 65.3 92% 30.07 0.0
22 23:15 Calm 10.00 Fair CLR 68.9 63.9 84% 30.07 0.0
22 22:55 Calm 10.00 Fair CLR 68.9 64 85% 30.07 0.0
22 22:35 Calm 10.00 Fair CLR 68.4 67.6 98% 30.08 0.0
22 22:15 Calm 10.00 Fair CLR 68.5 68 98% 30.08 0.0
22 21:55 Calm 10.00 Fair CLR 68.9 68.4 98% 30.09 0.0
22 21:35 NW 3 10.00 Partly Cloudy SCT120 69.1 68.4 98% 30.09 0.0
22 21:15 Calm 10.00 Thunderstorm Light Rain in Vicinity SCT120 69.4 68.7 98% 30.08 0.0
22 20:55 Calm 10.00 Thunderstorm Light Drizzle in Vicinity CLR 70.9 63.1 77% 30.09 0.0
22 20:35 SW 6 10.00 Light Rain SCT060 70.3 63.1 78% 30.09 0.0
22 20:15 E 5 10.00 Partly Cloudy SCT060 70.5 63.5 79% 30.07 0.0
22 19:55 NE 9 10.00 Thunderstorm BKN060 72.3 62.8 72% 30.07 0.0
22 19:35 NE 9 G 24 10.00 Thunderstorm in Vicinity BKN060 72.1 62.2 71% 30.07 0.0
22 19:15 W 3 10.00 Partly Cloudy SCT060 78.8 61.3 55% 80 30.05 0.0
22 18:55 S 6 10.00 Partly Cloudy SCT080 81.9 58.6 86.4 80.4 45% 82 30.04 0.0 0.01
22 18:35 S 9 10.00 Partly Cloudy SCT055 SCT070 SCT080 81.5 59.7 48% 82 30.03 0.0
22 18:15 S 9 10.00 Partly Cloudy SCT055 SCT070 SCT080 82.4 59.4 46% 83 30.02 0.0
22 17:55 S 3 G 9 10.00 Partly Cloudy SCT022 SCT031 SCT055 82.2 60.6 48% 83 30.02 0.0 0.01
22 17:35 S 12 10.00 Thunderstorm Light Rain SCT022 BKN029 OVC055 81.3 63.1 54% 83 30.02 0.0 0.01
22 17:15 SW 12 G 18 10.00 Overcast OVC055 84 60.3 45% 84 30.02 0.0
22 16:55 SW 16 10.00 Mostly Cloudy BKN055 BKN070 85.1 59.7 42% 85 30.02 0.0
22 16:35 SE 6 10.00 Partly Cloudy SCT055 SCT070 84.7 57 39% 84 30.02 0.0
22 16:15 S 9 10.00 Partly Cloudy SCT055 SCT075 85.1 58.6 41% 85 30.03 0.0
22 15:55 SE 5 10.00 Partly Cloudy SCT065 SCT075 84.9 58.1 40% 84 30.04 0.0
22 15:35 SE 10 10.00 Mostly Cloudy BKN065 BKN075 85.6 58.3 40% 85 30.04 0.0
22 15:15 S 6 10.00 Partly Cloudy SCT055 SCT075 84.6 58.5 41% 84 30.05 0.0
22 14:55 E 7 10.00 Mostly Cloudy BKN055 BKN065 85.5 57.4 39% 85 30.06 0.0
22 14:35 SE 5 10.00 Partly Cloudy SCT055 SCT065 85.8 57.6 38% 85 30.07 0.0
22 14:15 E 5 10.00 Mostly Cloudy SCT050 BKN065 83.5 58.3 42% 83 30.08 0.0
22 13:55 SE 6 10.00 Mostly Cloudy BKN050 BKN065 82.9 58.5 43% 83 30.09 0.0
22 13:35 S 6 10.00 Fair CLR 82.4 60.1 47% 83 30.09 0.0
22 13:15 Calm 10.00 Partly Cloudy SCT055 82.9 59.7 45% 83 30.09 0.0
22 12:55 Calm 10.00 Partly Cloudy SCT055 SCT080 81.1 60.1 82.2 63 49% 82 30.1 0.0
22 12:35 NE 5 10.00 Partly Cloudy SCT050 SCT080 81.9 61.2 50% 83 30.11 0.0
22 12:15 E 3 10.00 Partly Cloudy SCT055 81.1 60.4 49% 82 30.11 0.0
22 11:55 SE 3 10.00 Partly Cloudy SCT048 SCT060 SCT085 81.7 60.4 49% 82 30.12 0.0
22 11:35 SE 3 10.00 Partly Cloudy SCT060 SCT080 SCT090 80.6 60.4 50% 81 30.12 0.0
22 11:15 E 3 10.00 Partly Cloudy SCT045 80.2 62.4 55% 82 30.13 0.0
22 10:55 E 3 10.00 Partly Cloudy SCT037 SCT043 SCT048 77.7 62.4 59% 79 30.13 0.0
22 10:35 Calm 10.00 Mostly Cloudy SCT029 BKN039 BKN046 78.6 63.3 60% 80 30.14 0.0
22 10:15 SE 3 10.00 Partly Cloudy SCT029 78.1 63.1 60% 80 30.14 0.0
22 09:55 Calm 10.00 Fair CLR 77.4 63.1 62% 79 30.15 0.0
22 09:35 S 3 10.00 Fair CLR 76.1 63 64% 78 30.15 0.0
22 09:15 S 3 10.00 Fair CLR 74.3 62.6 67% 30.15 0.0
22 08:55 Calm 10.00 Fair CLR 73.2 63.9 73% 30.14 0.0
22 08:35 Calm 10.00 Fair CLR 71.2 64.4 79% 30.14 0.0
22 08:15 S 3 10.00 Fair CLR 68.7 66.7 93% 30.14 0.0
22 07:55 Calm 10.00 Fair CLR 67.3 66.6 98% 30.13 0.0
22 07:35 Calm 7.00 Fair CLR 65.5 65.1 99% 30.12 0.0
22 07:15 Calm 7.00 Fair CLR 64.9 64.4 98% 30.12 0.0
22 06:55 Calm 5.00 Fog/Mist CLR 63.3 62.8 69.4 62.8 98% 30.11 0.0
22 06:35 Calm 10.00 Fair CLR 63.5 63 98% 30.11 0.0
22 06:15 Calm 10.00 Fair CLR 63.7 63.1 98% 30.11 0.0
22 05:55 Calm 10.00 Fair CLR 63.1 62.6 98% 30.11 0.0
22 05:35 Calm 10.00 Fair CLR 63.5 62.8 98% 30.11 0.0
22 05:15 Calm 10.00 Fair CLR 63 62.6 99% 30.11 0.0
22 04:55 Calm 10.00 Fair CLR 63 62.6 99% 30.11 0.0
22 04:35 SW 3 10.00 Fair CLR 63.5 62.8 98% 30.11 0.0
22 04:15 Calm 10.00 Fair CLR 64 63.5 98% 30.11 0.0
22 03:55 Calm 10.00 Fair CLR 64.4 63.9 98% 30.11 0.0
22 03:35 Calm 10.00 Fair CLR 64.4 63.5 97% 30.12 0.0
22 02:55 Calm 10.00 Fair CLR 65.1 62.2 90% 30.12 0.0
22 02:35 S 3 10.00 Fair CLR 65.5 62.6 90% 30.13 0.0
22 02:15 Calm 10.00 Fair CLR 67.1 60.8 80% 30.14 0.0
22 01:55 Calm 10.00 Fair CLR 69.3 61 75% 30.14 0.0
22 01:35 Calm 10.00 Fair CLR 69.3 60.8 75% 30.15 0.0
22 01:15 Calm 10.00 Fair CLR 69.3 60.8 75% 30.15 0.0
22 00:55 SE 3 10.00 Fair CLR 69.4 60.1 81.7 69.4 72% 30.15 0.0
22 00:35 SE 5 10.00 Fair CLR 70 59.9 71% 30.15 0.0
22 00:15 SE 3 10.00 Fair CLR 70.3 59.5 69% 30.15 0.0
21 23:55 Calm 10.00 Fair CLR 71.2 59.2 66% 30.15 0.0
21 23:35 E 3 10.00 Fair CLR 72.5 59 63% 30.15 0.0
21 23:15 E 5 10.00 Fair CLR 72.1 59.4 64% 30.15 0.0
21 22:55 E 3 10.00 Fair CLR 72.9 59.2 62% 30.15 0.0
21 22:35 E 3 10.00 Fair CLR 73.4 59.2 61% 30.14 0.0
21 22:15 Calm 10.00 Partly Cloudy SCT050 73.8 59.4 61% 30.14 0.0
21 21:55 Calm 10.00 Fair CLR 74.7 59.2 59% 30.13 0.0
21 21:35 E 3 10.00 Fair CLR 75.4 59.2 57% 78 30.11 0.0
21 21:15 E 3 10.00 Fair CLR 76.1 59.5 57% 78 30.11 0.0
21 20:55 SE 3 10.00 Fair CLR 77.4 59 53% 79 30.11 0.0
21 20:35 E 5 10.00 Fair CLR 78.8 58.5 50% 80 30.1 0.0
21 20:15 E 5 10.00 Partly Cloudy SCT110 79.7 58.8 49% 80 30.1 0.0
21 19:55 E 5 10.00 Partly Cloudy SCT110 79.9 58.1 47% 80 30.09 0.0
21 19:35 E 6 10.00 Fair CLR 80.2 57.7 46% 81 30.09 0.0
21 19:15 E 8 10.00 Fair CLR 80.8 58.5 47% 81 30.09 0.0
21 18:55 E 9 10.00 Partly Cloudy SCT085 SCT120 81.5 59 84.4 78.8 46% 82 30.09 0.0
21 18:35 E 3 10.00 Partly Cloudy SCT110 81.9 57.9 44% 82 30.09 0.0
21 18:15 NE 8 10.00 Partly Cloudy SCT065 SCT070 SCT100 82 58.3 44% 82 30.09 0.0
21 17:55 NE 3 10.00 Partly Cloudy SCT060 SCT065 SCT110 82.2 57.9 44% 82 30.09 0.0
21 17:35 E 9 10.00 Partly Cloudy SCT050 SCT110 83.3 59.5 45% 83 30.1 0.0
21 17:15 E 12 10.00 Partly Cloudy SCT050 SCT120 84.2 58.8 42% 84 30.1 0.0
21 16:55 NE 9 10.00 Partly Cloudy SCT050 SCT055 82.9 58.5 43% 83 30.1 0.0
21 16:35 E 6 10.00 Partly Cloudy SCT050 82.2 58.3 44% 82 30.11 0.0
21 15:55 NE 9 10.00 Partly Cloudy SCT047 SCT060 SCT070 82.9 58.6 44% 83 30.11 0.0
21 15:35 NE 12 G 16 10.00 Partly Cloudy SCT047 SCT060 SCT070 83.1 59.2 44% 83 30.12 0.0
21 15:15 NE 8 10.00 Partly Cloudy SCT047 SCT050 SCT070 81 59.5 48% 81 30.12 0.0
21 14:55 NE 9 10.00 Mostly Cloudy SCT047 BKN050 BKN075 80.6 59.2 48% 81 30.13 0.0
21 14:35 E 5 G 17 10.00 Mostly Cloudy SCT042 BKN050 BKN060 79.9 59.5 50% 81 30.14 0.0
21 14:15 NE 12 10.00 Mostly Cloudy BKN044 BKN060 BKN090 81 59.9 49% 82 30.14 0.0
21 13:55 NE 12 10.00 Partly Cloudy SCT040 SCT048 SCT055 80.1 60.1 51% 81 30.15 0.0
21 13:35 NE 8 10.00 Partly Cloudy SCT040 SCT050 SCT070 79.3 59.7 51% 80 30.15 0.0
21 13:15 N 10 10.00 Mostly Cloudy BKN036 BKN043 BKN050 78.8 59.9 52% 80 30.15 0.0
21 12:55 NE 9 10.00 Mostly Cloudy SCT036 BKN045 80.1 60.8 80.1 64.4 52% 81 30.16 0.0
21 12:35 NE 12 10.00 Partly Cloudy SCT034 79.5 60.1 52% 81 30.16 0.0
21 12:15 NE 9 10.00 Partly Cloudy SCT034 79.2 60.4 53% 80 30.16 0.0
21 11:55 NE 10 10.00 Fair CLR 78.1 60.8 55% 80 30.16 0.0
21 11:35 NE 12 G 17 10.00 Fair CLR 77 61.2 58% 79 30.16 0.0
21 11:15 NE 14 G 17 10.00 Partly Cloudy SCT026 76.5 60.4 58% 78 30.16 0.0
21 10:55 NE 12 10.00 Fair CLR 74.8 61.9 64% 30.16 0.0
21 10:35 NE 12 10.00 Partly Cloudy SCT019 74.7 62.2 65% 30.17 0.0
21 10:15 NE 12 10.00 Partly Cloudy SCT017 73.8 63 69% 30.17 0.0
21 09:55 N 7 10.00 Fair CLR 72.5 63.5 73% 30.17 0.0
21 09:35 NE 7 10.00 Partly Cloudy SCT010 70.2 63.9 81% 30.18 0.0
21 09:15 NE 6 10.00 Partly Cloudy SCT010 69.1 64.4 85% 30.18 0.0
21 08:55 NE 9 10.00 Partly Cloudy SCT008 67.6 64.6 90% 30.18 0.0
21 08:35 NE 7 10.00 Mostly Cloudy BKN008 66.9 66.2 98% 30.18 0.0
21 08:15 N 6 10.00 Mostly Cloudy BKN008 65.8 65.3 98% 30.18 0.0
21 07:55 NE 6 10.00 Mostly Cloudy BKN008 65.3 64.6 98% 30.16 0.0
21 07:35 NE 5 10.00 Mostly Cloudy BKN008 64.4 63.9 98% 30.16 0.0
21 07:15 N 7 10.00 Partly Cloudy SCT008 SCT055 64.4 63.9 98% 30.16 0.0
21 06:55 N 7 10.00 Mostly Cloudy BKN055 64.8 64.4 67.8 61.7 99% 30.16 0.0
21 06:35 N 8 10.00 Partly Cloudy SCT049 64.8 64.2 98% 30.15 0.0
21 06:15 N 7 10.00 Partly Cloudy SCT007 SCT046 64.9 64.4 98% 30.15 0.0
21 05:55 N 6 10.00 Mostly Cloudy BKN007 64.4 63.9 98% 30.14 0.0
21 05:35 NE 6 10.00 Mostly Cloudy BKN007 64.4 63.9 98% 30.14 0.0
21 05:15 N 6 10.00 Overcast OVC009 63.5 62.8 98% 30.14 0.0
21 04:55 N 7 10.00 Mostly Cloudy BKN009 62.4 61.7 98% 30.13 0.0
21 04:35 N 6 10.00 Partly Cloudy SCT007 61.7 61.2 98% 30.12 0.0
21 04:15 N 6 10.00 Mostly Cloudy BKN007 62.8 62.1 98% 30.12 0.0
21 03:55 NE 7 10.00 Fair CLR 62.8 62.2 98% 30.11 0.0
21 03:35 N 7 10.00 Fair CLR 64 63.5 98% 30.12 0.0
21 03:15 N 8 10.00 Fair CLR 64.2 63.5 98% 30.12 0.0
21 02:55 NE 8 10.00 Fair CLR 64.9 64.4 98% 30.12 0.0
21 02:35 NE 8 10.00 Fair CLR 65.7 65.3 99% 30.13 0.0
21 02:15 NE 7 10.00 Fair CLR 66.2 65.7 98% 30.14 0.0
21 01:55 NE 6 10.00 Fair CLR 66.9 66.2 98% 30.13 0.0
21 01:35 NE 7 10.00 Fair CLR 67.5 66.9 98% 30.14 0.0
21 01:15 NE 6 10.00 Fair CLR 67.8 67.1 98% 30.14 0.0
21 00:55 NE 3 10.00 Fair CLR 67.5 67.1 85.3 67.5 99% 30.13 0.0
21 00:35 NE 5 10.00 Fair CLR 67.6 67.1 98% 30.13 0.0
21 00:15 NE 5 10.00 Fair CLR 68.4 68 99% 30.14 0.0
20 23:55 NE 6 10.00 Fair CLR 68.9 68 97% 30.14 0.0
20 23:35 NE 6 10.00 Fair CLR 69.3 67.1 93% 30.14 0.0
20 23:15 NE 5 10.00 Fair CLR 69.8 65.8 87% 30.14 0.0
20 22:55 NE 6 10.00 Fair CLR 70.5 65.3 84% 30.14 0.0
20 22:35 NE 6 10.00 Fair CLR 71.6 64.4 78% 30.14 0.0
20 22:15 NE 7 10.00 Fair CLR 72.7 64.2 75% 30.13 0.0
20 21:55 NE 7 10.00 Fair CLR 73.6 64.4 73% 30.11 0.0
20 21:35 NE 9 10.00 Fair CLR 74.7 64.6 71% 30.11 0.0
20 21:15 NE 9 10.00 Fair CLR 75.7 65.1 70% 77 30.09 0.0
20 20:55 NE 9 10.00 Fair CLR 76.6 65.3 68% 78 30.09 0.0
20 20:35 NE 13 10.00 Fair CLR 78.1 65.7 66% 80 30.08 0.0
20 20:15 NE 12 G 16 10.00 Fair CLR 79.9 65.3 61% 82 30.07 0.0
20 19:55 NE 9 10.00 Fair CLR 81.1 65.1 58% 83 30.07 0.0
20 19:35 NE 13 10.00 Fair CLR 82 65.1 57% 84 30.06 0.0
20 19:15 NE 15 10.00 Partly Cloudy SCT049 83.7 64.8 53% 85 30.05 0.0
20 18:55 NE 15 G 21 10.00 Partly Cloudy SCT049 85.6 63.1 88.7 80.2 47% 87 30.04 0.0
20 18:35 NE 13 G 20 10.00 Fair CLR 86.2 61.5 44% 86 30.03 0.0
20 18:15 N 16 10.00 Fair CLR 86.5 61 42% 87 30.03 0.0
20 17:55 N 14 10.00 Fair CLR 87.6 61.3 41% 88 30.04 0.0
20 17:35 N 14 10.00 Partly Cloudy SCT060 86.5 60.3 41% 86 30.04 0.0
20 16:55 N 8 G 16 10.00 Partly Cloudy SCT050 SCT075 88 61.3 41% 88 30.04 0.0
20 16:35 N 10 10.00 Mostly Cloudy SCT050 BKN065 87.6 62.6 43% 88 30.04 0.0
20 16:15 N 10 10.00 Mostly Cloudy BKN050 BKN065 88.3 63.1 43% 89 30.04 0.0
20 15:55 N 9 10.00 Mostly Cloudy BKN050 BKN065 86.7 63.5 46% 88 30.05 0.0
20 15:35 N 6 10.00 Partly Cloudy SCT049 SCT055 87.3 63.7 45% 88 30.05 0.0
20 15:15 N 6 10.00 Fair CLR 86.5 63.3 46% 88 30.06 0.0
20 14:55 N 9 10.00 Partly Cloudy SCT045 86.4 64.2 48% 88 30.06 0.0
20 14:35 N 6 10.00 Fair CLR 85.1 63.5 48% 86 30.06 0.0
20 14:15 NW 7 10.00 Fair CLR 85.1 63.3 48% 86 30.07 0.0
20 13:55 N 5 10.00 Partly Cloudy SCT036 SCT045 83.8 65.5 54% 86 30.07 0.0
20 13:35 NW 7 10.00 Partly Cloudy SCT034 82.8 64.8 55% 84 30.07 0.0
20 13:15 N 7 10.00 Fair CLR 81.7 65.5 58% 84 30.07 0.0
20 12:55 N 8 10.00 Fair CLR 80.8 65.7 80.8 66.7 60% 83 30.08 0.0 0.01
20 12:35 W 6 10.00 Fair CLR 78.3 65.7 65% 80 30.09 0.0
20 12:15 NW 3 10.00 Fair CLR 76.8 65.5 68% 79 30.09 0.0
20 11:55 SW 3 10.00 Fair CLR 75 64.4 70% 77 30.09 0.0 0.01
20 11:35 SW 7 10.00 Fair CLR 73.8 65.3 75% 30.09 0.0
20 11:15 SW 5 10.00 Fair CLR 71.4 65.3 81% 30.09 0.0
20 10:55 SW 6 10.00 Fair CLR 70.2 64.4 82% 30.09 0.0
20 10:35 SW 5 10.00 Fair CLR 69.6 64.6 84% 30.09 0.0
20 10:15 SW 7 10.00 Fair CLR 68.5 65.3 89% 30.09 0.0
20 09:55 SW 9 10.00 Fair CLR 67.6 65.7 93% 30.09 0.0
20 09:35 S 6 10.00 Fair CLR 67.6 66.9 98% 30.09 0.0
20 09:15 S 6 10.00 Fair CLR 67.5 66.6 97% 30.09 0.0
20 08:55 S 6 10.00 Fair CLR 67.1 66.6 98% 30.09 0.0
20 08:35 S 7 10.00 Fair CLR 68 66.9 96% 30.07 0.0
20 08:15 S 6 10.00 Fair CLR 68.2 67.5 98% 30.07 0.0
20 07:55 SW 5 10.00 Fair CLR 68.2 67.5 98% 30.07 0.0
20 07:35 S 3 10.00 Fair CLR 68 66.4 95% 30.07 0.0
20 07:15 Calm 10.00 Fair CLR 68 67.1 97% 30.07 0.0
20 06:55 S 3 10.00 Partly Cloudy SCT043 SCT100 66.9 66.2 75 66.2 98% 30.06 0.0 0.02 0.08
20 06:35 SE 9 10.00 Light Rain SCT043 SCT050 BKN100 67.3 66.7 98% 30.03 0.0 0.02
20 06:15 E 3 10.00 Light Rain SCT036 SCT044 SCT050 67.1 66.6 98% 30.04 0.0 0.01
20 05:55 SE 3 10.00 Light Rain SCT036 SCT048 BKN070 67.3 66.7 98% 30.04 0.0 0.01
20 05:35 S 6 10.00 Light Rain CLR 67.1 66.6 98% 30.05 0.0
20 05:15 S 10 10.00 Light Drizzle SCT044 SCT060 67.1 65.5 95% 30.05 0.0
20 04:55 S 12 10.00 Light Rain SCT037 BKN043 OVC060 66.4 65.8 98% 30.06 0.0 0.05
20 04:35 SW 10 G 22 10.00 Rain SCT036 SCT042 BKN050 67.3 62.1 83% 30.09 0.0 0.01
20 04:15 NW 17 10.00 Partly Cloudy SCT060 SCT120 70.7 57.6 63% 30.11 0.0
20 03:55 S 12 10.00 Mostly Cloudy BKN120 72 56.5 58% 30.06 0.0
20 03:35 S 12 10.00 Fair CLR 72 56.3 58% 30.05 0.0
20 03:15 S 10 G 18 10.00 Fair CLR 72.5 56.3 57% 30.05 0.0
20 02:55 S 13 10.00 Fair CLR 72.7 56.5 57% 30.04 0.0
20 02:35 S 14 G 17 10.00 Fair CLR 72.9 56.5 57% 30.04 0.0
20 02:15 S 10 10.00 Fair CLR 73.4 56.7 56% 30.05 0.0
20 01:55 S 12 10.00 Fair CLR 73.6 56.8 56% 30.06 0.0
20 01:35 S 9 10.00 Fair CLR 74.3 56.3 54% 30.06 0.0
20 01:15 S 9 10.00 Fair CLR 74.7 56.3 53% 30.06 0.0
Date Time (cdt) Wind (mph) Vis. (mi.) Weather Sky Cond. Air Dwpt Max. Min. Relative Humidity Wind Chill (°F) Heat Index (°F) altimeter (in) sea level (mb) 1 hr 3 hr 6 hr
6 hour
Temperature (ºF) Pressure Precipitation (in)